FW1396 Weather Reports


Display with metric or nautical units.
time (UTC)temp
F
wind
direction
speed
MPH
gust
MPH
rain 1hr
in
rain 24hr
in
rain mn
in
humidity
%
barometer
mb
20260903042211 79 173 0.0 0.0 0.00 0.00 0.00 79 998.8
20260903041709 79 173 0.0 0.0 0.00 0.00 0.00 79 998.7
20260903041209 79 173 0.0 0.0 0.00 0.00 0.00 79 998.7
20260903040709 79 173 0.0 1.0 0.00 0.00 0.00 79 998.7
20260903040211 80 173 0.0 2.0 0.00 0.00 0.00 78 998.7
20260903035708 80 173 1.0 2.0 0.00 0.00 0.00 78 998.8
20260903035208 80 173 0.0 1.0 0.00 0.00 0.00 78 998.6
20260903034707 80 173 0.0 0.0 0.00 0.00 0.00 77 998.7
20260903034208 80 173 0.0 2.0 0.00 0.00 0.00 77 998.8
20260903033707 80 173 0.0 2.0 0.00 0.00 0.00 77 998.8
20260903033440 81 173 0.0 1.0 0.00 0.00 0.00 76 998.7
20260903032707 81 173 0.0 0.0 0.00 0.00 0.00 75 998.8
20260903032207 81 173 0.0 0.0 0.00 0.00 0.00 74 998.7
20260903031707 82 173 0.0 0.0 0.00 0.00 0.00 74 998.7
20260903031208 82 173 0.0 0.0 0.00 0.00 0.00 74 998.7
20260903030710 82 173 0.0 1.0 0.00 0.00 0.00 74 998.7
20260903030207 82 173 0.0 1.0 0.00 0.00 0.00 73 998.7
20260903025707 82 173 0.0 0.0 0.00 0.00 0.00 73 998.7
20260903025207 83 173 0.0 0.0 0.00 0.00 0.00 72 998.6
20260903024707 83 173 0.0 0.0 0.00 0.00 0.00 72 998.7
20260903024437 83 173 0.0 2.0 0.00 0.00 0.00 71 998.7
20260903023938 83 173 0.0 2.0 0.00 0.00 0.00 71 998.6
20260903023206 83 173 0.0 2.0 0.00 0.00 0.00 71 998.5
20260903022706 84 173 1.0 2.0 0.00 0.00 0.00 70 998.5
20260903022206 84 173 1.0 2.0 0.00 0.00 0.00 70 998.5
20260903021705 84 173 0.0 0.0 0.00 0.00 0.00 69 998.4
20260903021206 85 173 0.0 0.0 0.00 0.00 0.00 68 998.4
20260903020707 85 173 0.0 0.0 0.00 0.00 0.00 67 998.3
20260903020207 86 173 0.0 0.0 0.00 0.00 0.00 66 998.2
20260903015706 87 173 0.0 0.0 0.00 0.00 0.00 65 998.3
20260903015205 87 173 0.0 0.0 0.00 0.00 0.00 64 998.1
20260903014705 87 173 0.0 0.0 0.00 0.00 0.00 63 998.1
20260903014205 88 173 0.0 0.0 0.00 0.00 0.00 62 998.0
20260903013705 89 173 0.0 0.0 0.00 0.00 0.00 61 997.8
20260903013205 89 173 0.0 0.0 0.00 0.00 0.00 60 997.8
20260903012704 90 173 0.0 0.0 0.00 0.00 0.00 58 997.7
20260903012204 90 173 0.0 0.0 0.00 0.00 0.00 58 997.6
20260903011706 91 173 0.0 0.0 0.00 0.00 0.00 57 997.6
20260903011205 91 173 0.0 1.0 0.00 0.00 0.00 55 997.5
20260903010704 91 173 0.0 2.0 0.00 0.00 0.00 55 997.5
20260903010204 92 173 0.0 3.0 0.00 0.00 0.00 55 997.5
20260903005934 92 173 1.0 3.0 0.00 0.00 0.00 54 997.5
20260903005203 92 173 1.0 2.0 0.00 0.00 0.00 54 997.3
20260903004705 92 173 1.0 4.0 0.00 0.00 0.00 53 997.3
20260903004204 93 173 1.0 4.0 0.00 0.00 0.00 53 997.3
20260903003935 93 190 2.0 6.0 0.00 0.00 0.00 52 997.2
20260903003435 93 227 2.0 6.0 0.00 0.00 0.00 52 997.3
20260903002703 94 238 2.0 6.0 0.00 0.00 0.00 52 997.2
20260903002202 94 244 3.0 6.0 0.00 0.00 0.00 52 997.3
20260903001703 94 233 2.0 5.0 0.00 0.00 0.00 51 997.2
20260903001203 94 206 2.0 4.0 0.00 0.00 0.00 51 997.2
20260903000702 95 214 2.0 4.0 0.00 0.00 0.00 51 997.3
20260903000204 95 214 2.0 9.0 0.00 0.00 0.00 51 997.2
20260902235703 95 255 4.0 9.0 0.00 0.00 0.00 51 997.4
20260902235201 95 213 2.0 5.0 0.00 0.00 0.00 50 997.3
20260902234703 95 192 2.0 6.0 0.00 0.00 0.00 50 997.4
20260902234203 95 254 3.0 7.0 0.00 0.00 0.00 50 997.4
20260902233702 95 240 4.0 7.0 0.00 0.00 0.00 50 997.4
20260902233202 96 245 4.0 5.0 0.00 0.00 0.00 50 997.4
20260902232702 96 193 5.0 6.0 0.00 0.00 0.00 50 997.4
20260902232201 96 193 5.0 6.0 0.00 0.00 0.00 50 997.4
20260902231700 96 247 4.0 9.0 0.00 0.00 0.00 50 997.4
20260902231200 96 220 4.0 10.0 0.00 0.00 0.00 49 997.5
20260902230659 96 195 5.0 11.0 0.00 0.00 0.00 49 997.4
20260902230200 96 200 6.0 11.0 0.00 0.00 0.00 49 997.3
20260902225703 97 219 6.0 13.0 0.00 0.00 0.00 49 997.3
20260902225159 97 252 7.0 16.0 0.00 0.00 0.00 48 997.3
20260902224659 97 245 8.0 16.0 0.00 0.00 0.00 48 997.2
20260902224158 98 268 8.0 13.0 0.00 0.00 0.00 48 997.2
20260902223659 97 251 8.0 13.0 0.00 0.00 0.00 48 997.2
20260902223159 97 220 4.0 10.0 0.00 0.00 0.00 49 997.2
20260902222928 97 216 4.0 10.0 0.00 0.00 0.00 49 997.2
20260902222158 97 237 6.0 10.0 0.00 0.00 0.00 49 997.2
20260902221929 97 212 6.0 10.0 0.00 0.00 0.00 48 997.3
20260902221158 97 217 4.0 9.0 0.00 0.00 0.00 48 997.3
20260902220658 97 266 5.0 9.0 0.00 0.00 0.00 48 997.3
20260902220200 97 265 5.0 11.0 0.00 0.00 0.00 48 997.3
20260902215658 98 237 5.0 11.0 0.00 0.00 0.00 47 997.3
20260902215158 98 241 5.0 9.0 0.00 0.00 0.00 47 997.2
20260902214430 99 262 4.0 12.0 0.00 0.00 0.00 45 997.2
20260902213659 99 254 6.0 12.0 0.00 0.00 0.00 45 997.3
20260902213157 99 58 2.0 4.0 0.00 0.00 0.00 45 997.2
20260902212929 99 226 2.0 6.0 0.00 0.00 0.00 46 997.4
20260902212200 99 217 4.0 10.0 0.00 0.00 0.00 45 997.4
20260902211656 99 258 6.0 11.0 0.00 0.00 0.00 45 997.5
20260902211427 99 279 5.0 12.0 0.00 0.00 0.00 45 997.5
20260902210655 99 247 6.0 12.0 0.00 0.00 0.00 45 997.4
20260902205657 99 288 2.0 4.0 0.00 0.00 0.00 45 997.6
20260902205157 99 87 2.0 4.0 0.00 0.00 0.00 45 997.6
20260902204658 98 212 0.0 3.0 0.00 0.00 0.00 46 997.7
20260902204156 98 212 1.0 4.0 0.00 0.00 0.00 46 997.8
20260902203657 98 212 2.0 6.0 0.00 0.00 0.00 46 997.8
20260902203158 98 216 2.0 6.0 0.00 0.00 0.00 46 997.9
20260902202656 98 254 3.0 6.0 0.00 0.00 0.00 46 998.0
20260902202155 98 159 3.0 6.0 0.00 0.00 0.00 46 998.0
20260902201659 99 209 2.0 4.0 0.00 0.00 0.00 44 998.0
20260902201156 0 0.0 0.0 0.00 0.00 0.00 998.0
20260902200657 100 172 4.0 5.0 0.00 0.00 0.00 43 998.1
20260902200154 100 172 4.0 5.0 0.00 0.00 0.00 43 998.2
20260902195654 100 259 3.0 9.0 0.00 0.00 0.00 43 998.2
20260902195152 100 274 1.0 9.0 0.00 0.00 0.00 43 998.3
20260902194654 100 285 4.0 7.0 0.00 0.00 0.00 44 998.4
20260902194153 100 279 3.0 9.0 0.00 0.00 0.00 44 998.5
20260902193653 100 214 3.0 9.0 0.00 0.00 0.00 44 998.5
20260902193152 99 247 5.0 10.0 0.00 0.00 0.00 45 998.5
20260902192652 99 264 6.0 10.0 0.00 0.00 0.00 44 998.7
20260902192152 99 250 6.0 10.0 0.00 0.00 0.00 44 998.7
20260902191653 98 207 3.0 9.0 0.00 0.00 0.00 45 998.8
20260902191152 98 245 5.0 10.0 0.00 0.00 0.00 44 998.9
20260902190653 99 228 6.0 10.0 0.00 0.00 0.00 43 998.9
20260902190155 99 265 3.0 6.0 0.00 0.00 0.00 44 999.0
20260902185652 98 193 3.0 9.0 0.00 0.00 0.00 43 999.0
20260902185152 98 292 4.0 9.0 0.00 0.00 0.00 45 999.0
20260902184650 98 259 2.0 10.0 0.00 0.00 0.00 43 999.2
20260902184152 98 268 4.0 10.0 0.00 0.00 0.00 44 999.2
20260902183652 98 257 5.0 10.0 0.00 0.00 0.00 42 999.1
20260902183151 99 226 6.0 10.0 0.00 0.00 0.00 42 999.2
20260902182652 98 255 5.0 10.0 0.00 0.00 0.00 44 999.2
20260902182152 99 212 4.0 11.0 0.00 0.00 0.00 43 999.2
20260902181652 99 202 7.0 11.0 0.00 0.00 0.00 44 999.3
20260902181152 99 262 3.0 7.0 0.00 0.00 0.00 45 999.4
20260902180653 98 221 4.0 6.0 0.00 0.00 0.00 45 999.4
20260902180422 97 333 2.0 7.0 0.00 0.00 0.00 45 999.5
20260902175651 98 237 3.0 7.0 0.00 0.00 0.00 45 999.6
20260902175150 98 230 3.0 7.0 0.00 0.00 0.00 45 999.6
20260902174150 98 274 2.0 10.0 0.00 0.00 0.00 45 999.8
20260902173649 98 247 3.0 11.0 0.00 0.00 0.00 47 999.9
20260902173422 97 241 3.0 11.0 0.00 0.00 0.00 47 999.8
20260902172651 98 292 4.0 9.0 0.00 0.00 0.00 47 999.9
20260902172150 98 262 6.0 9.0 0.00 0.00 0.00 46 999.9
20260902171921 0 0.0 0.0 0.00 0.00 0.00 1000.0
20260902171149 0 0.0 0.0 0.00 0.00 0.00 1000.1
20260902170649 0 0.0 0.0 0.00 0.00 0.00 1000.2
20260902170146 0 0.0 0.0 0.00 0.00 0.00 1000.3
20260902165645 0 0.0 0.0 0.00 0.00 0.00 1000.3
20260902165144 0 0.0 0.0 0.00 0.00 0.00 1000.4
20260902164913 96 245 3.0 9.0 0.00 0.00 0.00 50 1000.4
20260902164413 96 245 3.0 9.0 0.00 0.00 0.00 50 1000.4
20260902163913 96 250 3.0 6.0 0.00 0.00 0.00 52 1000.5
20260902163142 96 252 2.0 9.0 0.00 0.00 0.00 53 1000.6
20260902162642 96 258 2.0 9.0 0.00 0.00 0.00 53 1000.6
20260902162142 96 231 1.0 13.0 0.00 0.00 0.00 53 1000.7
20260902161641 95 307 6.0 13.0 0.00 0.00 0.00 55 1000.7
20260902161412 95 212 3.0 7.0 0.00 0.00 0.00 55 1000.7
20260902160641 94 257 2.0 10.0 0.00 0.00 0.00 57 1000.8
20260902160141 94 4 4.0 10.0 0.00 0.00 0.00 57 1000.9
20260902155911 94 217 4.0 7.0 0.00 0.00 0.00 58 1001.0
20260902155143 93 255 4.0 7.0 0.00 0.00 0.00 59 1000.8
20260902154641 92 231 3.0 7.0 0.00 0.00 0.00 60 1000.9
20260902154139 92 228 5.0 7.0 0.00 0.00 0.00 62 1001.0
20260902153910 91 169 2.0 7.0 0.00 0.00 0.00 63 1001.1
20260902153411 91 213 4.0 7.0 0.00 0.00 0.00 64 1001.1
20260902152641 90 207 2.0 4.0 0.00 0.00 0.00 65 1001.2
20260902152140 90 237 3.0 4.0 0.00 0.00 0.00 68 1001.1
20260902151915 89 240 1.0 4.0 0.00 0.00 0.00 68 1001.1
20260902151140 88 240 3.0 4.0 0.00 0.00 0.00 68 1001.2
20260902150640 88 223 3.0 4.0 0.00 0.00 0.00 70 1001.3
20260902150412 86 207 2.0 4.0 0.00 0.00 0.00 71 1001.2
20260902145638 86 228 1.0 5.0 0.00 0.00 0.00 71 1001.3
20260902145142 86 264 2.0 6.0 0.00 0.00 0.00 72 1001.3
20260902144639 85 252 4.0 6.0 0.00 0.00 0.00 72 1001.3
20260902144411 85 216 3.0 5.0 0.00 0.00 0.00 74 1001.4
20260902143640 84 207 3.0 5.0 0.00 0.00 0.00 74 1001.3
20260902143139 83 220 2.0 4.0 0.00 0.00 0.00 76 1001.2
20260902142639 82 209 3.0 4.0 0.00 0.00 0.00 79 1001.2
20260902142139 82 209 1.0 3.0 0.00 0.00 0.00 79 1001.3
20260902141639 80 209 0.0 0.0 0.00 0.00 0.00 82 1001.3
20260902141138 80 209 0.0 0.0 0.00 0.00 0.00 82 1001.3
20260902140638 80 209 0.0 0.0 0.00 0.00 0.00 89 1001.4
20260902140137 0 0.0 0.0 0.00 0.00 0.00 1001.5
20260902135134 0 0.0 0.0 0.00 0.00 0.00 1001.6
20260902134905 77 209 0.0 0.0 0.00 0.00 0.00 89 1001.6
20260902134132 77 209 0.0 0.0 0.00 0.00 0.00 89 1001.5
20260902133903 76 209 0.0 0.0 0.00 0.00 0.00 89 1001.6
20260902133133 75 209 0.0 0.0 0.00 0.00 0.00 90 1001.5
20260902132901 75 209 0.0 0.0 0.00 0.00 0.00 90 1001.6
20260902132131 74 209 0.0 0.0 0.00 0.00 0.00 92 1001.6
20260902131629 74 209 0.0 0.0 0.00 0.00 0.00 92 1001.6
20260902131130 74 209 0.0 0.0 0.00 0.00 0.00 92 1001.6
20260902130631 74 209 0.0 0.0 0.00 0.00 0.00 93 1001.6
20260902125900 73 209 0.0 0.0 0.00 0.00 0.00 95 1001.6
20260902125130 73 209 0.0 0.0 0.00 0.00 0.00 95 1001.7
20260902124627 72 209 0.0 0.0 0.00 0.00 0.00 95 1001.5
20260902124129 72 209 0.0 0.0 0.00 0.00 0.00 95 1001.6
20260902123628 72 209 0.0 0.0 0.00 0.00 0.00 95 1001.5
20260902123128 71 209 0.0 0.0 0.00 0.00 0.00 94 1001.4
20260902122628 71 209 0.0 0.0 0.00 0.00 0.00 94 1001.4
20260902122127 71 209 0.0 0.0 0.00 0.00 0.00 94 1001.4
20260902121628 71 209 0.0 0.0 0.00 0.00 0.00 94 1001.4
20260902121128 71 209 0.0 0.0 0.00 0.00 0.00 94 1001.4
20260902120628 71 209 0.0 0.0 0.00 0.00 0.00 94 1001.4
20260902120130 71 209 0.0 0.0 0.00 0.00 0.00 94 1001.3
20260902115629 71 209 0.0 0.0 0.00 0.00 0.00 93 1001.3
20260902114626 71 209 0.0 0.0 0.00 0.00 0.00 93 1001.2
20260902114357 71 209 0.0 0.0 0.00 0.00 0.00 93 1001.1
20260902113626 71 209 0.0 0.0 0.00 0.00 0.00 93 1000.9
20260902113128 71 209 0.0 0.0 0.00 0.00 0.00 93 1000.8
20260902112628 71 209 0.0 0.0 0.00 0.00 0.00 93 1000.6
20260902112126 72 209 0.0 0.0 0.00 0.00 0.00 93 1000.6
20260902111854 72 209 0.0 0.0 0.00 0.00 0.00 93 1000.7
20260902111125 72 209 0.0 0.0 0.00 0.00 0.00 93 1000.7
20260902110625 72 209 0.0 0.0 0.00 0.00 0.00 93 1000.7
20260902110125 72 209 0.0 0.0 0.00 0.00 0.00 93 1000.5
20260902105625 72 209 0.0 0.0 0.00 0.00 0.00 93 1000.6
20260902105125 72 209 0.0 0.0 0.00 0.00 0.00 93 1000.5
20260902104624 72 209 0.0 0.0 0.00 0.00 0.00 93 1000.4
20260902104356 72 209 0.0 0.0 0.00 0.00 0.00 93 1000.5
20260902103856 72 209 0.0 0.0 0.00 0.00 0.00 93 1000.5
20260902103125 72 209 0.0 0.0 0.00 0.00 0.00 93 1000.6
20260902102856 72 209 0.0 0.0 0.00 0.00 0.00 93 1000.6
20260902102125 72 209 0.0 0.0 0.00 0.00 0.00 92 1000.7
20260902101623 72 209 0.0 0.0 0.00 0.00 0.00 93 1000.6
20260902101354 72 209 0.0 0.0 0.00 0.00 0.00 92 1000.6
20260902100623 72 209 0.0 0.0 0.00 0.00 0.00 92 1000.6
20260902100124 73 209 0.0 0.0 0.00 0.00 0.00 92 1000.4
20260902095624 73 209 0.0 0.0 0.00 0.00 0.00 92 1000.5
20260902095120 73 209 0.0 0.0 0.00 0.00 0.00 92 1000.5
20260902094622 73 209 0.0 0.0 0.00 0.00 0.00 92 1000.5
20260902094124 73 209 0.0 0.0 0.00 0.00 0.00 92 1000.6
20260902093624 73 209 0.0 0.0 0.00 0.00 0.00 92 1000.5
20260902093123 73 209 0.0 0.0 0.00 0.00 0.00 91 1000.6
20260902092622 73 209 0.0 0.0 0.00 0.00 0.00 91 1000.6
20260902092122 73 209 0.0 0.0 0.00 0.00 0.00 91 1000.6
20260902091622 73 209 0.0 0.0 0.00 0.00 0.00 91 1000.6
20260902091119 73 209 0.0 0.0 0.00 0.00 0.00 91 1000.5
20260902090621 73 209 0.0 0.0 0.00 0.00 0.00 91 1000.5
20260902090121 74 209 0.0 0.0 0.00 0.00 0.00 91 1000.5
20260902085623 74 209 0.0 0.0 0.00 0.00 0.00 91 1000.5
20260902085123 74 209 0.0 0.0 0.00 0.00 0.00 91 1000.5
20260902084634 74 209 0.0 0.0 0.00 0.00 0.00 91 1000.5
20260902084121 74 209 0.0 0.0 0.00 0.00 0.00 90 1000.6
20260902083622 74 209 0.0 0.0 0.00 0.00 0.00 90 1000.5
20260902083121 74 209 0.0 0.0 0.00 0.00 0.00 90 1000.4
20260902082622 74 209 0.0 0.0 0.00 0.00 0.00 90 1000.4
20260902082120 74 209 0.0 0.0 0.00 0.00 0.00 90 1000.4
20260902081623 74 209 0.0 0.0 0.00 0.00 0.00 90 1000.4
20260902081122 74 209 0.0 0.0 0.00 0.00 0.00 90 1000.5
20260902080620 74 209 0.0 0.0 0.00 0.00 0.00 89 1000.3
20260902080120 74 209 0.0 0.0 0.00 0.00 0.00 89 1000.3
20260902075620 74 209 0.0 0.0 0.00 0.00 0.00 89 1000.3
20260902075121 75 209 0.0 0.0 0.00 0.00 0.00 89 1000.3
20260902074617 75 209 0.0 0.0 0.00 0.00 0.00 89 1000.3
20260902074119 75 209 0.0 0.0 0.00 0.00 0.00 89 1000.4
20260902073618 75 209 0.0 0.0 0.00 0.00 0.00 89 1000.4
20260902073120 75 209 0.0 0.0 0.00 0.00 0.00 89 1000.3
20260902072621 75 209 0.0 0.0 0.00 0.00 0.00 88 1000.4
20260902072119 75 209 0.0 0.0 0.00 0.00 0.00 88 1000.4
20260902071621 75 209 0.0 0.0 0.00 0.00 0.00 87 1000.5
20260902071119 75 209 0.0 0.0 0.00 0.00 0.00 87 1000.5
20260902070619 75 209 0.0 0.0 0.00 0.00 0.00 87 1000.5
20260902070119 76 209 0.0 0.0 0.00 0.00 0.00 87 1000.6
20260902065619 76 209 0.0 0.0 0.00 0.00 0.00 87 1000.5
20260902065350 76 209 0.0 0.0 0.00 0.00 0.00 87 1000.5
20260902064619 76 209 0.0 0.0 0.00 0.00 0.00 87 1000.5
20260902064119 76 209 0.0 0.0 0.00 0.00 0.00 87 1000.4
20260902062619 76 209 0.0 0.0 0.00 0.00 0.00 86 1000.4
20260902062351 76 209 0.0 0.0 0.00 0.00 0.00 86 1000.4
20260902061849 76 209 0.0 0.0 0.00 0.00 0.00 86 1000.3
20260902061118 77 209 0.0 0.0 0.00 0.00 0.00 86 1000.4
20260902060850 77 209 0.0 0.0 0.00 0.00 0.00 85 1000.4
20260902060119 77 209 0.0 0.0 0.00 0.00 0.00 85 1000.4
20260902055617 77 209 0.0 0.0 0.00 0.00 0.00 85 1000.4
20260902055119 77 209 0.0 0.0 0.00 0.00 0.00 85 1000.4
20260902054617 77 209 0.0 0.0 0.00 0.00 0.00 84 1000.4
20260902054118 78 209 0.0 0.0 0.00 0.00 0.00 84 1000.4
20260902053618 78 209 0.0 0.0 0.00 0.00 0.00 84 1000.4
20260902053117 78 209 0.0 0.0 0.00 0.00 0.00 83 1000.3
20260902052849 78 209 0.0 0.0 0.00 0.00 0.00 83 1000.2
20260902052349 78 209 0.0 0.0 0.00 0.00 0.00 83 1000.1
20260902051618 78 209 0.0 0.0 0.00 0.00 0.00 82 1000.1
20260902051117 78 209 0.0 0.0 0.00 0.00 0.00 82 1000.0
20260902050616 78 209 0.0 0.0 0.00 0.00 0.00 82 1000.0
20260902050118 79 209 0.0 0.0 0.00 0.00 0.00 82 999.9
20260902045617 79 209 0.0 0.0 0.00 0.00 0.00 81 1000.0
20260902045117 79 209 0.0 0.0 0.00 0.00 0.00 81 1000.0
20260902044617 79 209 0.0 0.0 0.00 0.00 0.00 81 1000.0
20260902044117 79 209 0.0 0.0 0.00 0.00 0.00 81 1000.0
20260902043617 79 209 0.0 0.0 0.00 0.00 0.00 80 999.9
20260902043115 80 209 0.0 0.0 0.00 0.00 0.00 80 999.9
20260902042616 80 209 0.0 0.0 0.00 0.00 0.00 80 999.8